This is the latest recevied weather packets stored in our database for station/object HB9TJM-8. If no packets are shown the sender has not sent any weather packets the latest 10 day(s).
| Time | Temp. | Humidity | Pressure | Rain* | Wind** | Luminosity | Snow |
|---|---|---|---|---|---|---|---|
| 1777485901 | 13.33° C | 63% | 1018.1 hPa | 0 mm | - | 22 W/m² | - |
| 1777485901 | 13.33° C | 63% | 1018.1 hPa | 0 mm | - | 22 W/m² | - |
| 1777485594 | 13.33° C | 64% | 1017.8 hPa | 0 mm | - | 26 W/m² | - |
| 1777485593 | 13.33° C | 64% | 1017.8 hPa | 0 mm | - | 26 W/m² | - |
| 1777485286 | 13.33° C | 64% | 1017.4 hPa | 0 mm | - | 28 W/m² | - |
| 1777485286 | 13.33° C | 64% | 1017.4 hPa | 0 mm | - | 28 W/m² | - |
| 1777484978 | 13.33° C | 65% | 1017.6 hPa | 0 mm | - | 32 W/m² | - |
| 1777484671 | 13.33° C | 63% | 1017.6 hPa | 0 mm | - | 37 W/m² | - |
| 1777484363 | 13.33° C | 63% | 1017.5 hPa | 0 mm | - | 42 W/m² | - |
| 1777484363 | 13.33° C | 63% | 1017.5 hPa | 0 mm | - | 42 W/m² | - |
| 1777484056 | 13.89° C | 63% | 1017.2 hPa | 0 mm | - | 48 W/m² | - |
| 1777483748 | 13.89° C | 63% | 1017.4 hPa | 0 mm | - | 55 W/m² | - |
| 1777483748 | 13.89° C | 63% | 1017.4 hPa | 0 mm | - | 55 W/m² | - |
| 1777483441 | 13.89° C | 63% | 1017.6 hPa | 0 mm | - | 62 W/m² | - |
| 1777482826 | 13.89° C | 63% | 1017.7 hPa | 0 mm | - | 75 W/m² | - |
| 1777482518 | 13.89° C | 62% | 1017.6 hPa | 0 mm | - | 83 W/m² | - |
| 1777482210 | 13.89° C | 63% | 1017.6 hPa | 0 mm | - | 94 W/m² | - |
| 1777481903 | 13.89° C | 62% | 1017.5 hPa | 0 mm | - | 98 W/m² | - |
| 1777481596 | 13.89° C | 61% | 1017.6 hPa | 0 mm | - | 104 W/m² | - |
| 1777481288 | 13.89° C | 61% | 1017.5 hPa | 0 mm | - | 110 W/m² | - |
| 1777480981 | 13.89° C | 61% | 1017.6 hPa | 0 mm | - | 116 W/m² | - |
| 1777480673 | 13.89° C | 60% | 1017.8 hPa | 0 mm | - | 122 W/m² | - |
| 1777480366 | 13.89° C | 61% | 1017.9 hPa | 0 mm | - | 127 W/m² | - |
| 1777480058 | 13.89° C | 61% | 1017.8 hPa | 0 mm | - | 130 W/m² | - |
| 1777479751 | 13.89° C | 61% | 1017.2 hPa | 0 mm | - | 138 W/m² | - |
* Rain latest hour (hover to see other rain measurements)
** Current wind speed in m/s (hover to see current wind gust speed)